Year,Month,Day,Hour,Minute,Value (Times are PST for temperature in C)
2015,07,31,00,00,19.00
2015,07,31,00,01,18.90
2015,07,31,00,02,18.90
2015,07,31,00,03,18.90
2015,07,31,00,04,18.80
2015,07,31,00,05,18.80
2015,07,31,00,06,18.70
2015,07,31,00,07,18.70
2015,07,31,00,08,18.60
2015,07,31,00,09,18.60
2015,07,31,00,10,18.60
2015,07,31,00,11,18.50
2015,07,31,00,12,18.50
2015,07,31,00,13,18.50
2015,07,31,00,14,18.50
2015,07,31,00,15,18.50
2015,07,31,00,16,18.50
2015,07,31,00,17,18.50
2015,07,31,00,18,18.50
2015,07,31,00,19,18.50
2015,07,31,00,20,18.50
2015,07,31,00,21,18.50
2015,07,31,00,22,18.50
2015,07,31,00,23,18.50
2015,07,31,00,24,18.40
2015,07,31,00,25,18.40
2015,07,31,00,26,18.40
2015,07,31,00,27,18.40
2015,07,31,00,28,18.40
2015,07,31,00,29,18.40
2015,07,31,00,30,18.40
2015,07,31,00,31,18.40
2015,07,31,00,32,18.40
2015,07,31,00,33,18.40
2015,07,31,00,34,18.50
2015,07,31,00,35,18.40
2015,07,31,00,36,18.40
2015,07,31,00,37,18.40
2015,07,31,00,38,18.40
2015,07,31,00,39,18.40
2015,07,31,00,40,18.40
2015,07,31,00,41,18.40
2015,07,31,00,42,18.40
2015,07,31,00,43,18.40
2015,07,31,00,44,18.40
2015,07,31,00,45,18.40
2015,07,31,00,46,18.40
2015,07,31,00,47,18.40
2015,07,31,00,48,18.40
2015,07,31,00,49,18.40
2015,07,31,00,50,18.40
2015,07,31,00,51,18.30
2015,07,31,00,52,18.30
2015,07,31,00,53,18.30
2015,07,31,00,54,18.30
2015,07,31,00,55,18.20
2015,07,31,00,56,18.20
2015,07,31,00,57,18.20
2015,07,31,00,58,18.10
2015,07,31,00,59,18.10
2015,07,31,01,00,18.10
2015,07,31,01,01,18.10
2015,07,31,01,02,18.10
2015,07,31,01,03,18.00
2015,07,31,01,04,18.00
2015,07,31,01,05,18.00
2015,07,31,01,06,17.90
2015,07,31,01,07,17.90
2015,07,31,01,08,17.90
2015,07,31,01,09,17.90
2015,07,31,01,10,17.80
2015,07,31,01,11,17.80
2015,07,31,01,12,17.80
2015,07,31,01,13,17.70
2015,07,31,01,14,17.70
2015,07,31,01,15,17.70
2015,07,31,01,16,17.60
2015,07,31,01,17,17.60
2015,07,31,01,18,17.50
2015,07,31,01,19,17.40
2015,07,31,01,20,17.40
2015,07,31,01,21,17.30
2015,07,31,01,22,17.30
2015,07,31,01,23,17.30
2015,07,31,01,24,17.20
2015,07,31,01,25,17.20
2015,07,31,01,26,17.20
2015,07,31,01,27,17.10
2015,07,31,01,28,17.10
2015,07,31,01,29,17.10
2015,07,31,01,30,17.10
2015,07,31,01,31,17.10
2015,07,31,01,32,17.10
2015,07,31,01,33,17.10
2015,07,31,01,34,17.20
2015,07,31,01,35,17.20
2015,07,31,01,36,17.20
2015,07,31,01,37,17.20
2015,07,31,01,38,17.20
2015,07,31,01,39,17.20
2015,07,31,01,40,17.20
2015,07,31,01,41,17.10
2015,07,31,01,42,17.10
2015,07,31,01,43,17.10
2015,07,31,01,44,17.00
2015,07,31,01,45,16.90
2015,07,31,01,46,16.90
2015,07,31,01,47,16.90
2015,07,31,01,48,16.80
2015,07,31,01,49,16.80
2015,07,31,01,50,16.80
2015,07,31,01,51,16.80
2015,07,31,01,52,16.70
2015,07,31,01,53,16.70
2015,07,31,01,54,16.70
2015,07,31,01,55,16.70
2015,07,31,01,56,16.70
2015,07,31,01,57,16.70
2015,07,31,01,58,16.60
2015,07,31,01,59,16.60
2015,07,31,02,00,16.60
2015,07,31,02,01,16.60
2015,07,31,02,02,16.50
2015,07,31,02,03,16.50
2015,07,31,02,04,16.50
2015,07,31,02,05,16.50
2015,07,31,02,06,16.50
2015,07,31,02,07,16.50
2015,07,31,02,08,16.60
2015,07,31,02,09,16.60
2015,07,31,02,10,16.60
2015,07,31,02,11,16.60
2015,07,31,02,12,16.60
2015,07,31,02,13,16.60
2015,07,31,02,14,16.60
2015,07,31,02,15,16.70
2015,07,31,02,16,16.70
2015,07,31,02,17,16.80
2015,07,31,02,18,16.80
2015,07,31,02,19,16.90
2015,07,31,02,20,17.00
2015,07,31,02,21,17.10
2015,07,31,02,22,17.10
2015,07,31,02,23,17.20
2015,07,31,02,24,17.20
2015,07,31,02,25,17.30
2015,07,31,02,26,17.30
2015,07,31,02,27,17.40
2015,07,31,02,28,17.40
2015,07,31,02,29,17.50
2015,07,31,02,30,17.50
2015,07,31,02,31,17.60
2015,07,31,02,32,17.60
2015,07,31,02,33,17.60
2015,07,31,02,34,17.60
2015,07,31,02,35,17.60
2015,07,31,02,36,17.60
2015,07,31,02,37,17.60
2015,07,31,02,38,17.60
2015,07,31,02,39,17.60
2015,07,31,02,40,17.60
2015,07,31,02,41,17.60
2015,07,31,02,42,17.60
2015,07,31,02,43,17.60
2015,07,31,02,44,17.60
2015,07,31,02,45,17.60
2015,07,31,02,46,17.70
2015,07,31,02,47,17.70
2015,07,31,02,48,17.70
2015,07,31,02,49,17.70
2015,07,31,02,50,17.70
2015,07,31,02,51,17.70
2015,07,31,02,52,17.70
2015,07,31,02,53,17.70
2015,07,31,02,54,17.70
2015,07,31,02,55,17.70
2015,07,31,02,56,17.70
2015,07,31,02,57,17.70
2015,07,31,02,58,17.70
2015,07,31,02,59,17.70
2015,07,31,03,00,17.70
2015,07,31,03,01,17.70
2015,07,31,03,02,17.70
2015,07,31,03,03,17.60
2015,07,31,03,04,17.60
2015,07,31,03,05,17.50
2015,07,31,03,06,17.50
2015,07,31,03,07,17.40
2015,07,31,03,08,17.40
2015,07,31,03,09,17.30
2015,07,31,03,10,17.30
2015,07,31,03,11,17.30
2015,07,31,03,12,17.20
2015,07,31,03,13,17.20
2015,07,31,03,14,17.10
2015,07,31,03,15,17.10
2015,07,31,03,16,17.00
2015,07,31,03,17,17.00
2015,07,31,03,18,17.00
2015,07,31,03,19,16.90
2015,07,31,03,20,16.90
2015,07,31,03,21,16.90
2015,07,31,03,22,17.00
2015,07,31,03,23,17.00
2015,07,31,03,24,17.10
2015,07,31,03,25,17.10
2015,07,31,03,26,17.10
2015,07,31,03,27,17.10
2015,07,31,03,28,17.10
2015,07,31,03,29,17.10
2015,07,31,03,30,17.10
2015,07,31,03,31,17.10
2015,07,31,03,32,17.10
2015,07,31,03,33,17.10
2015,07,31,03,34,17.10
2015,07,31,03,35,17.10
2015,07,31,03,36,17.00
2015,07,31,03,37,17.00
2015,07,31,03,38,17.00
2015,07,31,03,39,16.90
2015,07,31,03,40,16.90
2015,07,31,03,41,16.90
2015,07,31,03,42,16.80
2015,07,31,03,43,16.80
2015,07,31,03,44,16.80
2015,07,31,03,45,16.70
2015,07,31,03,46,16.70
2015,07,31,03,47,16.60
2015,07,31,03,48,16.60
2015,07,31,03,49,16.50
2015,07,31,03,50,16.50
2015,07,31,03,51,16.40
2015,07,31,03,52,16.40
2015,07,31,03,53,16.40
2015,07,31,03,54,16.30
2015,07,31,03,55,16.30
2015,07,31,03,56,16.30
2015,07,31,03,57,16.30
2015,07,31,03,58,16.30
2015,07,31,03,59,16.40
2015,07,31,04,00,16.40
2015,07,31,04,01,16.40
2015,07,31,04,02,16.40
2015,07,31,04,03,16.40
2015,07,31,04,04,16.50
2015,07,31,04,05,16.50
2015,07,31,04,06,16.50
2015,07,31,04,07,16.50
2015,07,31,04,08,16.50
2015,07,31,04,09,16.40
2015,07,31,04,10,16.40
2015,07,31,04,11,16.40
2015,07,31,04,12,16.40
2015,07,31,04,13,16.40
2015,07,31,04,14,16.30
2015,07,31,04,15,16.30
2015,07,31,04,16,16.30
2015,07,31,04,17,16.30
2015,07,31,04,18,16.30
2015,07,31,04,19,16.20
2015,07,31,04,20,16.20
2015,07,31,04,21,16.20
2015,07,31,04,22,16.10
2015,07,31,04,23,16.10
2015,07,31,04,24,16.10
2015,07,31,04,25,16.10
2015,07,31,04,26,16.00
2015,07,31,04,27,16.00
2015,07,31,04,28,16.00
2015,07,31,04,29,15.90
2015,07,31,04,30,15.90
2015,07,31,04,31,15.90
2015,07,31,04,32,15.90
2015,07,31,04,33,15.80
2015,07,31,04,34,15.80
2015,07,31,04,35,15.80
2015,07,31,04,36,15.80
2015,07,31,04,37,15.70
2015,07,31,04,38,15.70
2015,07,31,04,39,15.70
2015,07,31,04,40,15.70
2015,07,31,04,41,15.70
2015,07,31,04,42,15.70
2015,07,31,04,43,15.70
2015,07,31,04,44,15.60
2015,07,31,04,45,15.60
2015,07,31,04,46,15.60
2015,07,31,04,47,15.60
2015,07,31,04,48,15.60
2015,07,31,04,49,15.50
2015,07,31,04,50,15.50
2015,07,31,04,51,15.50
2015,07,31,04,52,15.50
2015,07,31,04,53,15.40
2015,07,31,04,54,15.40
2015,07,31,04,55,15.40
2015,07,31,04,56,15.40
2015,07,31,04,57,15.40
2015,07,31,04,58,15.40
2015,07,31,04,59,15.30
2015,07,31,05,00,15.30
2015,07,31,05,01,15.30
2015,07,31,05,02,15.30
2015,07,31,05,03,15.30
2015,07,31,05,04,15.30
2015,07,31,05,05,15.30
2015,07,31,05,06,15.20
2015,07,31,05,07,15.20
2015,07,31,05,08,15.20
2015,07,31,05,09,15.10
2015,07,31,05,10,15.10
2015,07,31,05,11,15.10
2015,07,31,05,12,15.10
2015,07,31,05,13,15.00
2015,07,31,05,14,15.00
2015,07,31,05,15,14.90
2015,07,31,05,16,14.90
2015,07,31,05,17,14.90
2015,07,31,05,18,14.90
2015,07,31,05,19,14.80
2015,07,31,05,20,14.80
2015,07,31,05,21,14.80
2015,07,31,05,22,14.80
2015,07,31,05,23,14.80
2015,07,31,05,24,14.80
2015,07,31,05,25,14.70
2015,07,31,05,26,14.70
2015,07,31,05,27,14.70
2015,07,31,05,28,14.70
2015,07,31,05,29,14.80
2015,07,31,05,30,14.80
2015,07,31,05,31,14.80
2015,07,31,05,32,14.80
2015,07,31,05,33,14.80
2015,07,31,05,34,14.80
2015,07,31,05,35,14.90
2015,07,31,05,36,14.90
2015,07,31,05,37,14.90
2015,07,31,05,38,14.90
2015,07,31,05,39,14.90
2015,07,31,05,40,14.90
2015,07,31,05,41,14.90
2015,07,31,05,42,15.00
2015,07,31,05,43,15.00
2015,07,31,05,44,15.00
2015,07,31,05,45,15.00
2015,07,31,05,46,15.10
2015,07,31,05,47,15.10
2015,07,31,05,48,15.10
2015,07,31,05,49,15.10
2015,07,31,05,50,15.20
2015,07,31,05,51,15.20
2015,07,31,05,52,15.30
2015,07,31,05,53,15.30
2015,07,31,05,54,15.30
2015,07,31,05,55,15.30
2015,07,31,05,56,15.30
2015,07,31,05,57,15.30
2015,07,31,05,58,15.30
2015,07,31,05,59,15.30
2015,07,31,06,00,15.30
2015,07,31,06,01,15.30
2015,07,31,06,02,15.20
2015,07,31,06,03,15.20
2015,07,31,06,04,15.20
2015,07,31,06,05,15.20
2015,07,31,06,06,15.20
2015,07,31,06,07,15.20
2015,07,31,06,08,15.20
2015,07,31,06,09,15.20
2015,07,31,06,10,15.20
2015,07,31,06,11,15.20
2015,07,31,06,12,15.30
2015,07,31,06,13,15.30
2015,07,31,06,14,15.30
2015,07,31,06,15,15.30
2015,07,31,06,16,15.30
2015,07,31,06,17,15.30
2015,07,31,06,18,15.30
2015,07,31,06,19,15.30
2015,07,31,06,20,15.30
2015,07,31,06,21,15.30
2015,07,31,06,22,15.30
2015,07,31,06,23,15.40
2015,07,31,06,24,15.40
2015,07,31,06,25,15.40
2015,07,31,06,26,15.40
2015,07,31,06,27,15.50
2015,07,31,06,28,15.50
2015,07,31,06,29,15.60
2015,07,31,06,30,15.60
2015,07,31,06,31,15.70
2015,07,31,06,32,15.70
2015,07,31,06,33,15.80
2015,07,31,06,34,15.80
2015,07,31,06,35,15.80
2015,07,31,06,36,15.90
2015,07,31,06,37,15.90
2015,07,31,06,38,16.00
2015,07,31,06,39,16.00
2015,07,31,06,40,16.10
2015,07,31,06,41,16.10
2015,07,31,06,42,16.10
2015,07,31,06,43,16.20
2015,07,31,06,44,16.20
2015,07,31,06,45,16.20
2015,07,31,06,46,16.30
2015,07,31,06,47,16.30
2015,07,31,06,48,16.30
2015,07,31,06,49,16.30
2015,07,31,06,50,16.40
2015,07,31,06,51,16.40
2015,07,31,06,52,16.40
2015,07,31,06,53,16.50
2015,07,31,06,54,16.50
2015,07,31,06,55,16.60
2015,07,31,06,56,16.60
2015,07,31,06,57,16.70
2015,07,31,06,58,16.70
2015,07,31,06,59,16.70
2015,07,31,07,00,16.70
2015,07,31,07,01,16.80
2015,07,31,07,02,16.80
2015,07,31,07,03,16.80
2015,07,31,07,04,16.80
2015,07,31,07,05,16.80
2015,07,31,07,06,16.80
2015,07,31,07,07,16.90
2015,07,31,07,08,16.90
2015,07,31,07,09,16.90
2015,07,31,07,10,16.90
2015,07,31,07,11,16.90
2015,07,31,07,12,16.90
2015,07,31,07,13,17.00
2015,07,31,07,14,17.00
2015,07,31,07,15,17.10
2015,07,31,07,16,17.10
2015,07,31,07,17,17.10
2015,07,31,07,18,17.20
2015,07,31,07,19,17.20
2015,07,31,07,20,17.20
2015,07,31,07,21,17.30
2015,07,31,07,22,17.30
2015,07,31,07,23,17.40
2015,07,31,07,24,17.40
2015,07,31,07,25,17.50
2015,07,31,07,26,17.50
2015,07,31,07,27,17.60
2015,07,31,07,28,17.60
2015,07,31,07,29,17.70
2015,07,31,07,30,17.70
2015,07,31,07,31,17.70
2015,07,31,07,32,17.80
2015,07,31,07,33,17.80
2015,07,31,07,34,17.90
2015,07,31,07,35,17.90
2015,07,31,07,36,17.90
2015,07,31,07,37,18.00
2015,07,31,07,38,18.00
2015,07,31,07,39,18.10
2015,07,31,07,40,18.10
2015,07,31,07,41,18.20
2015,07,31,07,42,18.20
2015,07,31,07,43,18.20
2015,07,31,07,44,18.30
2015,07,31,07,45,18.30
2015,07,31,07,46,18.30
2015,07,31,07,47,18.40
2015,07,31,07,48,18.40
2015,07,31,07,49,18.50
2015,07,31,07,50,18.50
2015,07,31,07,51,18.60
2015,07,31,07,52,18.60
2015,07,31,07,53,18.60
2015,07,31,07,54,18.60
2015,07,31,07,55,18.70
2015,07,31,07,56,18.70
2015,07,31,07,57,18.70
2015,07,31,07,58,18.80
2015,07,31,07,59,18.90
2015,07,31,08,00,19.00
2015,07,31,08,01,19.10
2015,07,31,08,02,19.30
2015,07,31,08,03,19.40
2015,07,31,08,04,19.60
2015,07,31,08,05,19.70
2015,07,31,08,06,19.80
2015,07,31,08,07,20.00
2015,07,31,08,08,20.20
2015,07,31,08,09,20.30
2015,07,31,08,10,20.30
2015,07,31,08,11,20.30
2015,07,31,08,12,20.30
2015,07,31,08,13,20.30
2015,07,31,08,14,20.40
2015,07,31,08,15,20.50
2015,07,31,08,16,20.50
2015,07,31,08,17,20.60
2015,07,31,08,18,20.60
2015,07,31,08,19,20.60
2015,07,31,08,20,20.60
2015,07,31,08,21,20.70
2015,07,31,08,22,20.70
2015,07,31,08,23,20.70
2015,07,31,08,24,20.80
2015,07,31,08,25,20.80
2015,07,31,08,26,20.90
2015,07,31,08,27,20.90
2015,07,31,08,28,21.00
2015,07,31,08,29,21.10
2015,07,31,08,30,21.10
2015,07,31,08,31,21.20
2015,07,31,08,32,21.30
2015,07,31,08,33,21.40
2015,07,31,08,34,21.50
2015,07,31,08,35,21.70
2015,07,31,08,36,21.80
2015,07,31,08,37,21.90
2015,07,31,08,38,22.00
2015,07,31,08,39,22.20
2015,07,31,08,40,22.30
2015,07,31,08,41,22.40
2015,07,31,08,42,22.50
2015,07,31,08,43,22.60
2015,07,31,08,44,22.70
2015,07,31,08,45,22.70
2015,07,31,08,46,22.70
2015,07,31,08,47,22.80
2015,07,31,08,48,22.80
2015,07,31,08,49,22.80
2015,07,31,08,50,22.80
2015,07,31,08,51,22.80
2015,07,31,08,52,22.90
2015,07,31,08,53,22.90
2015,07,31,08,54,22.90
2015,07,31,08,55,23.00
2015,07,31,08,56,23.10
2015,07,31,08,57,23.20
2015,07,31,08,58,23.30
2015,07,31,08,59,23.40
2015,07,31,09,00,23.40
2015,07,31,09,01,23.50
2015,07,31,09,02,23.50
2015,07,31,09,03,23.50
2015,07,31,09,04,23.40
2015,07,31,09,05,23.40
2015,07,31,09,06,23.40
2015,07,31,09,07,23.30
2015,07,31,09,08,23.30
2015,07,31,09,09,23.20
2015,07,31,09,10,23.20
2015,07,31,09,11,23.20
2015,07,31,09,12,23.20
2015,07,31,09,13,23.20
2015,07,31,09,14,23.10
2015,07,31,09,15,23.10
2015,07,31,09,16,23.10
2015,07,31,09,17,23.10
2015,07,31,09,18,23.10
2015,07,31,09,19,23.10
2015,07,31,09,20,23.20
2015,07,31,09,21,23.30
2015,07,31,09,22,23.30
2015,07,31,09,23,23.40
2015,07,31,09,24,23.60
2015,07,31,09,25,23.70
2015,07,31,09,26,23.70
2015,07,31,09,27,23.70
2015,07,31,09,28,23.70
2015,07,31,09,29,23.70
2015,07,31,09,30,23.60
2015,07,31,09,31,23.60
2015,07,31,09,32,23.60
2015,07,31,09,33,23.60
2015,07,31,09,34,23.60
2015,07,31,09,35,23.50
2015,07,31,09,36,23.50
2015,07,31,09,37,23.50
2015,07,31,09,38,23.50
2015,07,31,09,39,23.60
2015,07,31,09,40,23.70
2015,07,31,09,41,23.80
2015,07,31,09,42,23.80
2015,07,31,09,43,23.90
2015,07,31,09,44,23.90
2015,07,31,09,45,23.90
2015,07,31,09,46,23.90
2015,07,31,09,47,23.90
2015,07,31,09,48,24.00
2015,07,31,09,49,24.00
2015,07,31,09,50,24.10
2015,07,31,09,51,24.10
2015,07,31,09,52,24.10
2015,07,31,09,53,24.20
2015,07,31,09,54,24.20
2015,07,31,09,55,24.10
2015,07,31,09,56,24.00
2015,07,31,09,57,23.90
2015,07,31,09,58,23.80
2015,07,31,09,59,23.80
2015,07,31,10,00,23.80
2015,07,31,10,01,23.80
2015,07,31,10,02,23.80
2015,07,31,10,03,23.80
2015,07,31,10,04,23.90
2015,07,31,10,05,23.90
2015,07,31,10,06,24.00
2015,07,31,10,07,24.10
2015,07,31,10,08,24.30
2015,07,31,10,09,24.30
2015,07,31,10,10,24.30
2015,07,31,10,11,24.30
2015,07,31,10,12,24.30
2015,07,31,10,13,24.40
2015,07,31,10,14,24.40
2015,07,31,10,15,24.50
2015,07,31,10,16,24.70
2015,07,31,10,17,24.70
2015,07,31,10,18,24.70
2015,07,31,10,19,24.80
2015,07,31,10,20,24.80
2015,07,31,10,21,24.80
2015,07,31,10,22,24.80
2015,07,31,10,23,24.70
2015,07,31,10,24,24.70
2015,07,31,10,25,24.80
2015,07,31,10,26,24.80
2015,07,31,10,27,24.90
2015,07,31,10,28,24.80
2015,07,31,10,29,24.80
2015,07,31,10,30,24.90
2015,07,31,10,31,24.90
2015,07,31,10,32,24.90
2015,07,31,10,33,24.90
2015,07,31,10,34,24.80
2015,07,31,10,35,24.80
2015,07,31,10,36,24.80
2015,07,31,10,37,24.80
2015,07,31,10,38,24.80
2015,07,31,10,39,24.80
2015,07,31,10,40,24.80
2015,07,31,10,41,24.80
2015,07,31,10,42,24.80
2015,07,31,10,43,24.70
2015,07,31,10,44,24.70
2015,07,31,10,45,24.70
2015,07,31,10,46,24.70
2015,07,31,10,47,24.70
2015,07,31,10,48,24.70
2015,07,31,10,49,24.80
2015,07,31,10,50,24.90
2015,07,31,10,51,24.90
2015,07,31,10,52,25.00
2015,07,31,10,53,25.10
2015,07,31,10,54,25.10
2015,07,31,10,55,25.10
2015,07,31,10,56,25.10
2015,07,31,10,57,25.10
2015,07,31,10,58,25.10
2015,07,31,10,59,25.10
2015,07,31,11,00,25.10
2015,07,31,11,01,25.10
2015,07,31,11,02,25.20
2015,07,31,11,03,25.20
2015,07,31,11,04,25.30
2015,07,31,11,05,25.20
2015,07,31,11,06,25.20
2015,07,31,11,07,25.10
2015,07,31,11,08,25.20
2015,07,31,11,09,25.20
2015,07,31,11,10,25.30
2015,07,31,11,11,25.40
2015,07,31,11,12,25.60
2015,07,31,11,13,25.60
2015,07,31,11,14,25.70
2015,07,31,11,15,25.70
2015,07,31,11,16,25.70
2015,07,31,11,17,25.70
2015,07,31,11,18,25.60
2015,07,31,11,19,25.60
2015,07,31,11,20,25.60
2015,07,31,11,21,25.60
2015,07,31,11,22,25.60
2015,07,31,11,23,25.50
2015,07,31,11,24,25.40
2015,07,31,11,25,25.20
2015,07,31,11,26,25.00
2015,07,31,11,27,24.90
2015,07,31,11,28,24.90
2015,07,31,11,29,25.10
2015,07,31,11,30,25.30
2015,07,31,11,31,25.50
2015,07,31,11,32,25.50
2015,07,31,11,33,25.50
2015,07,31,11,34,25.40
2015,07,31,11,35,25.30
2015,07,31,11,36,25.40
2015,07,31,11,37,25.40
2015,07,31,11,38,25.30
2015,07,31,11,39,25.30
2015,07,31,11,40,25.40
2015,07,31,11,41,25.60
2015,07,31,11,42,25.60
2015,07,31,11,43,25.70
2015,07,31,11,44,25.70
2015,07,31,11,45,25.80
2015,07,31,11,46,25.80
2015,07,31,11,47,25.80
2015,07,31,11,48,25.80
2015,07,31,11,49,25.70
2015,07,31,11,50,25.70
2015,07,31,11,51,25.60
2015,07,31,11,52,25.60
2015,07,31,11,53,25.60
2015,07,31,11,54,25.70
2015,07,31,11,55,25.80
2015,07,31,11,56,25.80
2015,07,31,11,57,25.80
2015,07,31,11,58,25.70
2015,07,31,11,59,25.60
2015,07,31,12,00,25.60
2015,07,31,12,01,25.60
2015,07,31,12,02,25.60
2015,07,31,12,03,25.50
2015,07,31,12,04,25.40
2015,07,31,12,05,25.50
2015,07,31,12,06,25.60
2015,07,31,12,07,25.80
2015,07,31,12,08,25.80
2015,07,31,12,09,25.80
2015,07,31,12,10,25.80
2015,07,31,12,11,26.00
2015,07,31,12,12,26.20
2015,07,31,12,13,26.30
2015,07,31,12,14,26.30
2015,07,31,12,15,26.40
2015,07,31,12,16,26.50
2015,07,31,12,17,26.60
2015,07,31,12,18,26.80
2015,07,31,12,19,26.80
2015,07,31,12,20,26.90
2015,07,31,12,21,26.80
2015,07,31,12,22,26.80
2015,07,31,12,23,26.80
2015,07,31,12,24,26.80
2015,07,31,12,25,27.00
2015,07,31,12,26,27.10
2015,07,31,12,27,27.10
2015,07,31,12,28,27.00
2015,07,31,12,29,26.90
2015,07,31,12,30,26.80
2015,07,31,12,31,26.70
2015,07,31,12,32,26.60
2015,07,31,12,33,26.60
2015,07,31,12,34,26.60
2015,07,31,12,35,26.60
2015,07,31,12,36,26.60
2015,07,31,12,37,26.60
2015,07,31,12,38,26.70
2015,07,31,12,39,26.80
2015,07,31,12,40,27.00
2015,07,31,12,41,27.10
2015,07,31,12,42,27.10
2015,07,31,12,43,27.10
2015,07,31,12,44,26.90
2015,07,31,12,45,26.80
2015,07,31,12,46,26.80
2015,07,31,12,47,26.90
2015,07,31,12,48,27.00
2015,07,31,12,49,27.20
2015,07,31,12,50,27.20
2015,07,31,12,51,27.30
2015,07,31,12,52,27.20
2015,07,31,12,53,27.20
2015,07,31,12,54,27.10
2015,07,31,12,55,26.90
2015,07,31,12,56,26.80
2015,07,31,12,57,26.80
2015,07,31,12,58,26.80
2015,07,31,12,59,26.90
2015,07,31,13,00,27.00
2015,07,31,13,01,26.90
2015,07,31,13,02,26.90
2015,07,31,13,03,26.90
2015,07,31,13,04,26.90
2015,07,31,13,05,26.90
2015,07,31,13,06,26.80
2015,07,31,13,07,26.80
2015,07,31,13,08,26.90
2015,07,31,13,09,27.00
2015,07,31,13,10,27.10
2015,07,31,13,11,27.10
2015,07,31,13,12,27.10
2015,07,31,13,13,27.10
2015,07,31,13,14,27.10
2015,07,31,13,15,27.10
2015,07,31,13,16,27.10
2015,07,31,13,17,27.20
2015,07,31,13,18,27.30
2015,07,31,13,19,27.30
2015,07,31,13,20,27.40
2015,07,31,13,21,27.30
2015,07,31,13,22,27.30
2015,07,31,13,23,27.30
2015,07,31,13,24,27.40
2015,07,31,13,25,27.50
2015,07,31,13,26,27.60
2015,07,31,13,27,27.70
2015,07,31,13,28,27.70
2015,07,31,13,29,27.60
2015,07,31,13,30,27.60
2015,07,31,13,31,27.40
2015,07,31,13,32,27.40
2015,07,31,13,33,27.30
2015,07,31,13,34,27.30
2015,07,31,13,35,27.40
2015,07,31,13,36,27.50
2015,07,31,13,37,27.60
2015,07,31,13,38,27.70
2015,07,31,13,39,27.80
2015,07,31,13,40,27.70
2015,07,31,13,41,27.70
2015,07,31,13,42,27.80
2015,07,31,13,43,27.80
2015,07,31,13,44,27.80
2015,07,31,13,45,27.70
2015,07,31,13,46,27.60
2015,07,31,13,47,27.50
2015,07,31,13,48,27.50
2015,07,31,13,49,27.60
2015,07,31,13,50,27.70
2015,07,31,13,51,27.80
2015,07,31,13,52,27.80
2015,07,31,13,53,27.80
2015,07,31,13,54,27.70
2015,07,31,13,55,27.60
2015,07,31,13,56,27.60
2015,07,31,13,57,27.50
2015,07,31,13,58,27.40
2015,07,31,13,59,27.40
2015,07,31,14,00,27.30
2015,07,31,14,01,27.40
2015,07,31,14,02,27.40
2015,07,31,14,03,27.50
2015,07,31,14,04,27.60
2015,07,31,14,05,27.70
2015,07,31,14,06,27.70
2015,07,31,14,07,27.80
2015,07,31,14,08,27.90
2015,07,31,14,09,28.00
2015,07,31,14,10,28.10
2015,07,31,14,11,27.90
2015,07,31,14,12,27.80
2015,07,31,14,13,27.80
2015,07,31,14,14,27.80
2015,07,31,14,15,27.80
2015,07,31,14,16,27.80
2015,07,31,14,17,27.80
2015,07,31,14,18,27.80
2015,07,31,14,19,27.80
2015,07,31,14,20,27.80
2015,07,31,14,21,27.80
2015,07,31,14,22,27.80
2015,07,31,14,23,27.70
2015,07,31,14,24,27.70
2015,07,31,14,25,27.70
2015,07,31,14,26,27.70
2015,07,31,14,27,27.60
2015,07,31,14,28,27.60
2015,07,31,14,29,27.60
2015,07,31,14,30,27.50
2015,07,31,14,31,27.50
2015,07,31,14,32,27.40
2015,07,31,14,33,27.50
2015,07,31,14,34,27.50
2015,07,31,14,35,27.40
2015,07,31,14,36,27.40
2015,07,31,14,37,27.40
2015,07,31,14,38,27.30
2015,07,31,14,39,27.30
2015,07,31,14,40,27.40
2015,07,31,14,41,27.50
2015,07,31,14,42,27.60
2015,07,31,14,43,27.70
2015,07,31,14,44,27.70
2015,07,31,14,45,27.70
2015,07,31,14,46,27.60
2015,07,31,14,47,27.70
2015,07,31,14,48,27.70
2015,07,31,14,49,27.80
2015,07,31,14,50,27.80
2015,07,31,14,51,27.80
2015,07,31,14,52,27.80
2015,07,31,14,53,27.90
2015,07,31,14,54,28.00
2015,07,31,14,55,28.10
2015,07,31,14,56,28.10
2015,07,31,14,57,28.20
2015,07,31,14,58,28.20
2015,07,31,14,59,28.30
2015,07,31,15,00,28.40
2015,07,31,15,01,28.50
2015,07,31,15,02,28.60
2015,07,31,15,03,28.60
2015,07,31,15,04,28.50
2015,07,31,15,05,28.50
2015,07,31,15,06,28.60
2015,07,31,15,07,28.50
2015,07,31,15,08,28.40
2015,07,31,15,09,28.50
2015,07,31,15,10,28.60
2015,07,31,15,11,28.70
2015,07,31,15,12,28.70
2015,07,31,15,13,28.60
2015,07,31,15,14,28.50
2015,07,31,15,15,28.40
2015,07,31,15,16,28.30
2015,07,31,15,17,28.30
2015,07,31,15,18,28.30
2015,07,31,15,19,28.30
2015,07,31,15,20,28.30
2015,07,31,15,21,28.40
2015,07,31,15,22,28.50
2015,07,31,15,23,28.60
2015,07,31,15,24,28.60
2015,07,31,15,25,28.60
2015,07,31,15,26,28.70
2015,07,31,15,27,28.80
2015,07,31,15,28,28.90
2015,07,31,15,29,29.00
2015,07,31,15,30,29.00
2015,07,31,15,31,29.10
2015,07,31,15,32,29.10
2015,07,31,15,33,29.10
2015,07,31,15,34,29.20
2015,07,31,15,35,29.20
2015,07,31,15,36,29.20
2015,07,31,15,37,29.20
2015,07,31,15,38,29.30
2015,07,31,15,39,29.40
2015,07,31,15,40,29.50
2015,07,31,15,41,29.60
2015,07,31,15,42,29.70
2015,07,31,15,43,29.80
2015,07,31,15,44,29.90
2015,07,31,15,45,29.90
2015,07,31,15,46,30.00
2015,07,31,15,47,30.00
2015,07,31,15,48,30.10
2015,07,31,15,49,30.20
2015,07,31,15,50,30.20
2015,07,31,15,51,30.20
2015,07,31,15,52,29.90
2015,07,31,15,53,29.70
2015,07,31,15,54,29.50
2015,07,31,15,55,29.30
2015,07,31,15,56,29.20
2015,07,31,15,57,29.10
2015,07,31,15,58,29.00
2015,07,31,15,59,29.00
2015,07,31,16,00,29.10
2015,07,31,16,01,29.00
2015,07,31,16,02,28.80
2015,07,31,16,03,28.80
2015,07,31,16,04,28.90
2015,07,31,16,05,29.10
2015,07,31,16,06,29.20
2015,07,31,16,07,29.40
2015,07,31,16,08,29.70
2015,07,31,16,09,29.90
2015,07,31,16,10,30.00
2015,07,31,16,11,30.20
2015,07,31,16,12,30.30
2015,07,31,16,13,30.50
2015,07,31,16,14,30.70
2015,07,31,16,15,30.70
2015,07,31,16,16,30.80
2015,07,31,16,17,30.80
2015,07,31,16,18,30.80
2015,07,31,16,19,30.80
2015,07,31,16,20,30.90
2015,07,31,16,21,31.00
2015,07,31,16,22,31.00
2015,07,31,16,23,31.00
2015,07,31,16,24,31.10
2015,07,31,16,25,31.00
2015,07,31,16,26,30.90
2015,07,31,16,27,30.80
2015,07,31,16,28,30.80
2015,07,31,16,29,30.90
2015,07,31,16,30,30.90
2015,07,31,16,31,30.80
2015,07,31,16,32,30.80
2015,07,31,16,33,30.80
2015,07,31,16,34,30.90
2015,07,31,16,35,30.80
2015,07,31,16,36,30.80
2015,07,31,16,37,30.70
2015,07,31,16,38,30.50
2015,07,31,16,39,30.50
2015,07,31,16,40,30.40
2015,07,31,16,41,30.40
2015,07,31,16,42,30.40
2015,07,31,16,43,30.40
2015,07,31,16,44,30.40
2015,07,31,16,45,30.20
2015,07,31,16,46,30.20
2015,07,31,16,47,30.20
2015,07,31,16,48,30.20
2015,07,31,16,49,30.20
2015,07,31,16,50,30.20
2015,07,31,16,51,30.30
2015,07,31,16,52,30.20
2015,07,31,16,53,30.30
2015,07,31,16,54,30.20
2015,07,31,16,55,30.10
2015,07,31,16,56,30.00
2015,07,31,16,57,29.80
2015,07,31,16,58,29.80
2015,07,31,16,59,29.80
2015,07,31,17,00,29.70
2015,07,31,17,01,29.70
2015,07,31,17,02,29.70
2015,07,31,17,03,29.60
2015,07,31,17,04,29.40
2015,07,31,17,05,29.30
2015,07,31,17,06,29.20
2015,07,31,17,07,29.20
2015,07,31,17,08,29.20
2015,07,31,17,09,29.30
2015,07,31,17,10,29.30
2015,07,31,17,11,29.30
2015,07,31,17,12,29.30
2015,07,31,17,13,29.30
2015,07,31,17,14,29.20
2015,07,31,17,15,29.20
2015,07,31,17,16,29.10
2015,07,31,17,17,29.10
2015,07,31,17,18,29.00
2015,07,31,17,19,28.90